Retour au catalogue

STARLINK-32896

ActifCommunicationsVLEO
NORAD 62959·PAYLOAD·🇺🇸 United States

Lancé Feb 11, 2025 depuis Vandenberg Space Force Base

Loading…

Prochains Passages (prochaines 24 heures)

TLE

FraisSource: CelesTrak SupGP

Époque: Sep 14, 2026, 21:15 UTC

1 62959C 25029M   26257.88590278  .00000712  00000+0  21030-4 0  2574
2 62959  53.1590  72.2995 0001262  83.5563 273.5273 15.34378269    19

Suivez STARLINK-32896 en temps réel avec AllMySat

Download on the App Store